Find Kosmos-2479

NORAD ID: 38101 Int'l Des: 2012-012 Owner: PVO Country: RU operational
MEOCIRCULAR

Current View

Loading 3D Globe...

About Kosmos-2479

Description loading...

Upcoming Passes

Passes for default location (London). Set your location on the main map for personalized predictions.

Altitude History

Loading altitude history...

Two-Line Element Set

1 38101U 12012A 26150.79652794 .00000138 00000-0 00000+0 0 9993
2 38101 8.8126 56.5246 0004983 241.8995 278.1354 1.00379727 51912
Epoch: May 30, 2026 • Age: 8 hours

Current Status

Altitude 35740.6 km
Velocity 3.08 km/s
Sub-Earth Point -8.73°S, 41.77°E
Launch Date Mar 30, 2012
Age 14.1 years
Type other

Technical Details

Classification Payload
Mass 2580.00 kg
Dry Mass 2200.00 kg
Total Mass 2580.00 kg
Length 5.00 m
Diameter 2.00 m
Span 10.00 m
Shape Step Cyl + 2 Pan
Manufacturer NPOL/KOMET
Bus Type Prognoz
Phase Status In Orbit
Owner/State PVO/RU

Most Searched